Time,TemperatureF,DewpointF,PressureIn,WindDirection,WindDirectionDegrees,WindSpeedMPH,WindSpeedGustMPH,Humidity,HourlyPrecipIn,Conditions,Clouds,dailyrainin,SolarRadiationWatts/m^2,SoftwareType,DateUTC
2013-01-14 00:04:00,47.7,47.4,29.93,WSW,253,7.0,16.0,99,0.00,,,0.00,0,Wunderground v.1.15,2013-01-14 05:04:00,
2013-01-14 00:34:00,47.8,47.5,29.93,WSW,255,8.0,15.0,99,0.00,,,0.00,0,Wunderground v.1.15,2013-01-14 05:34:00,
2013-01-14 01:04:00,47.9,47.6,29.93,West,278,8.0,8.0,99,0.00,,,0.00,0,Wunderground v.1.15,2013-01-14 06:04:00,
2013-01-14 01:34:00,47.9,47.6,29.93,West,272,7.0,12.0,99,0.00,,,0.00,0,Wunderground v.1.15,2013-01-14 06:34:00,
2013-01-14 02:04:00,47.7,47.4,29.93,West,272,6.0,13.0,99,0.00,,,0.00,0,Wunderground v.1.15,2013-01-14 07:04:00,
2013-01-14 02:34:00,47.6,47.3,29.93,West,268,5.0,5.0,99,0.00,,,0.00,0,Wunderground v.1.15,2013-01-14 07:34:00,
2013-01-14 03:04:00,47.4,47.1,29.92,West,273,3.0,8.0,99,0.00,,,0.00,0,Wunderground v.1.15,2013-01-14 08:04:00,
2013-01-14 03:34:00,47.3,47.0,29.90,West,272,4.0,4.0,99,0.00,,,0.00,0,Wunderground v.1.15,2013-01-14 08:34:00,
2013-01-14 04:04:00,46.4,46.1,29.88,West,259,6.0,6.0,99,0.00,,,0.00,0,Wunderground v.1.15,2013-01-14 09:04:00,
2013-01-14 04:34:00,47.1,46.8,29.87,West,259,7.0,12.0,99,0.00,,,0.00,0,Wunderground v.1.15,2013-01-14 09:34:00,
2013-01-14 05:04:00,47.3,47.0,29.87,WSW,256,5.0,14.0,99,0.00,,,0.01,0,Wunderground v.1.15,2013-01-14 10:04:00,
2013-01-14 05:34:00,47.2,46.9,29.86,WSW,258,7.0,12.0,99,0.00,,,0.01,0,Wunderground v.1.15,2013-01-14 10:34:00,
2013-01-14 06:04:00,45.5,45.2,29.84,West,265,7.0,12.0,99,0.00,,,0.01,0,Wunderground v.1.15,2013-01-14 11:04:00,
2013-01-14 06:34:00,47.3,47.0,29.86,WSW,245,7.0,12.0,99,0.00,,,0.01,0,Wunderground v.1.15,2013-01-14 11:34:00,
2013-01-14 07:04:00,46.7,46.4,29.87,WNW,287,6.0,12.0,99,0.00,,,0.01,0,Wunderground v.1.15,2013-01-14 12:04:00,
2013-01-14 07:34:00,48.2,48.2,29.86,WNW,288,6.0,6.0,100,0.00,,,0.01,0,Wunderground v.1.15,2013-01-14 12:34:00,
2013-01-14 08:04:00,47.9,47.6,29.85,West,274,5.0,11.0,99,0.00,,,0.01,12,Wunderground v.1.15,2013-01-14 13:04:00,
2013-01-14 08:34:00,47.4,47.1,29.84,West,271,7.0,7.0,99,0.00,,,0.01,28,Wunderground v.1.15,2013-01-14 13:34:00,
2013-01-14 09:04:00,47.5,47.2,29.85,West,263,6.0,10.0,99,0.00,,,0.01,23,Wunderground v.1.15,2013-01-14 14:04:00,
2013-01-14 09:34:00,48.7,48.7,29.86,West,270,7.0,14.0,100,0.00,,,0.01,56,Wunderground v.1.15,2013-01-14 14:34:00,
2013-01-14 10:04:00,48.6,48.3,29.87,WNW,290,5.0,18.0,99,0.00,,,0.01,98,Wunderground v.1.15,2013-01-14 15:04:00,
2013-01-14 10:34:00,49.5,49.5,29.87,WNW,284,5.0,11.0,100,0.00,,,0.01,193,Wunderground v.1.15,2013-01-14 15:34:00,
2013-01-14 11:04:00,49.6,49.6,29.86,West,274,8.0,11.0,100,0.00,,,0.01,120,Wunderground v.1.15,2013-01-14 16:04:00,
2013-01-14 11:34:00,49.1,48.8,29.86,WNW,291,6.0,11.0,99,0.00,,,0.01,178,Wunderground v.1.15,2013-01-14 16:34:00,
2013-01-14 12:04:00,50.2,49.4,29.86,WNW,295,7.0,7.0,97,0.00,,,0.01,278,Wunderground v.1.15,2013-01-14 17:04:00,
2013-01-14 12:34:00,51.9,50.8,29.88,WNW,292,4.0,4.0,96,0.00,,,0.00,454,Wunderground v.1.15,2013-01-14 17:34:00,
2013-01-14 13:04:00,52.5,50.8,29.88,WNW,303,1.0,7.0,94,0.00,,,0.00,332,Wunderground v.1.15,2013-01-14 18:04:00,
2013-01-14 13:34:00,55.2,51.4,29.90,WNW,283,1.0,6.0,87,0.00,,,0.00,287,Wunderground v.1.15,2013-01-14 18:34:00,
2013-01-14 14:04:00,56.9,51.5,29.91,WNW,296,2.0,2.0,82,0.00,,,0.01,33,Wunderground v.1.15,2013-01-14 19:04:00,
2013-01-14 14:34:00,56.4,50.6,29.94,NNW,332,3.0,3.0,81,0.00,,,0.01,32,Wunderground v.1.15,2013-01-14 19:34:00,
2013-01-14 15:04:00,53.7,47.3,29.95,NNE,15,9.0,23.0,79,0.00,,,0.01,25,Wunderground v.1.15,2013-01-14 20:04:00,
2013-01-14 15:34:00,53.3,43.0,29.98,North,7,9.0,18.0,68,0.00,,,0.01,19,Wunderground v.1.15,2013-01-14 20:34:00,
2013-01-14 16:04:00,51.2,30.6,30.01,NNW,341,9.0,26.0,45,0.00,,,0.01,11,Wunderground v.1.15,2013-01-14 21:04:00,
2013-01-14 16:34:00,49.1,30.7,30.04,North,5,5.0,22.0,49,0.00,,,0.01,0,Wunderground v.1.15,2013-01-14 21:34:00,
2013-01-14 17:04:00,46.9,33.7,30.06,NNE,12,6.0,15.0,60,0.00,,,0.01,0,Wunderground v.1.15,2013-01-14 22:04:00,
2013-01-14 17:34:00,44.9,31.8,30.06,North,354,7.0,7.0,60,0.00,,,0.01,0,Wunderground v.1.15,2013-01-14 22:34:00,
2013-01-14 18:04:00,43.3,30.7,30.07,North,349,7.0,15.0,61,0.00,,,0.01,0,Wunderground v.1.15,2013-01-14 23:04:00,
2013-01-14 18:34:00,42.5,30.0,30.08,North,359,8.0,8.0,61,0.00,,,0.01,0,Wunderground v.1.15,2013-01-14 23:34:00,
2013-01-14 19:04:00,41.5,30.2,30.08,NNE,24,8.0,8.0,64,0.00,,,0.01,0,Wunderground v.1.15,2013-01-15 00:04:00,
2013-01-14 19:34:00,40.6,29.7,30.11,North,357,5.0,11.0,65,0.00,,,0.01,0,Wunderground v.1.15,2013-01-15 00:34:00,
2013-01-14 20:04:00,40.3,28.7,30.13,NNE,15,10.0,10.0,63,0.00,,,0.01,0,Wunderground v.1.15,2013-01-15 01:04:00,
2013-01-14 20:34:00,39.8,28.6,30.11,NNW,345,11.0,11.0,64,0.00,,,0.01,0,Wunderground v.1.15,2013-01-15 01:34:00,
2013-01-14 21:04:00,39.3,28.1,30.15,NNE,13,10.0,19.0,64,0.00,,,0.01,0,Wunderground v.1.15,2013-01-15 02:04:00,
2013-01-14 21:34:00,39.1,27.2,30.15,NNE,18,10.0,24.0,62,0.00,,,0.01,0,Wunderground v.1.15,2013-01-15 02:34:00,
2013-01-14 22:04:00,38.5,27.0,30.14,North,2,10.0,10.0,63,0.00,,,0.01,0,Wunderground v.1.15,2013-01-15 03:04:00,
2013-01-14 22:34:00,38.3,26.8,30.14,NNE,24,8.0,8.0,63,0.00,,,0.01,0,Wunderground v.1.15,2013-01-15 03:34:00,
2013-01-14 23:04:00,38.2,26.7,30.16,North,358,5.0,13.0,63,0.00,,,0.01,0,Wunderground v.1.15,2013-01-15 04:04:00,
2013-01-14 23:34:00,37.8,26.7,30.17,NNE,12,6.0,6.0,64,0.00,,,0.01,0,Wunderground v.1.15,2013-01-15 04:34:00,